Tracking 35334 objects as of 13-Sep-2026
HD Live streaming from Space Station
objects crossing your sky now

SL-4 DEB


SL-4 DEB is no longer on orbit


NORAD ID: 8618
Int'l Code: 1976-009C
Launch date: January 29, 1976
Source: Commonwealth of Independent States (former USSR) (CIS)
Launch site: TYURATAM MISSILE AND SPACE COMPLEX (TTMTR)
Decay date: 1976-01-31

Note: This is SATELLITE DEBRIS
Your satellite tracking list
Your tracking list is empty




NASA's NSSDC Master Catalog

Two Line Element Set (TLE):
1 08618U 76009  C 76029.96925878  .04086142 +00000-0 +00000-0 0  9998
2 08618 071.4351 298.0919 0045808 041.5074 318.9566 16.16016405000109
Source of the keplerian elements: AFSPC